Regional Weather Roundup
Issued by NWS

Home | Current Version | Previous Version | Text Only | Print | Product List | Glossary On
Versions: 1 2 3 4 5 6 7 8 9 10 11 12 13 14 15 16 17 18 19 20 21 22 23 24 25 26 27 28 29 30 31 32 33 34 35 36 37 38 39 40 41 42 43 44 45 46 47 48 49 50
000
ASUS43 KDTX 201710
RWRMI
MICHIGAN HOURLY REGIONAL WEATHER ROUNDUP
NATIONAL WEATHER SERVICE DETROIT/PONTIAC MI
100 PM EDT SUN APR 20 2014

NOTE: "FAIR" INDICATES FEW OR NO CLOUDS BELOW 12,000 FEET WITH NO
SIGNIFICANT WEATHER AND/OR OBSTRUCTION TO VISIBILITY.

MIZ047>049-052>055-059>063-066>070-074>076-081>083-201800-
SOUTHEAST LOWER MICHIGAN

CITY           SKY/WX    TMP DP  RH WIND       PRES   REMARKS
ADRIAN         PTSUNNY   64  30  27 S9        30.26F
ALMA           SUNNY     61  29  29 S10       30.23F
ANN ARBOR      MOSUNNY   64  32  30 SW7       30.25F
BAD AXE        SUNNY     61  32  34 S9        30.23F
CARO           SUNNY     66  26  21 SE7       30.22F
DETROIT CITY   SUNNY     65  34  31 S7        30.26F
DETROIT        PTSUNNY   65  30  27 S3        30.26F
FLINT          MOSUNNY   68  30  24 S10       30.23F
GROSSE ILE     SUNNY     54  37  54 S5        30.25F
HILLSDALE      PTSUNNY   64  28  25 SW9       30.25S
HOWELL         MOSUNNY   65  28  24 S6        30.23F

CITY           SKY/WX    TMP DP  RH WIND       PRES   REMARKS
JACKSON        MOSUNNY   66  29  24 S12       30.23F
LAMBERTVILLE   MOSUNNY   68  28  22 SW5       30.24F
LANSING        SUNNY     66  30  26 S7        30.23F
LAPEER         FAIR      65  27  23 SW9       30.24F
MASON          MOSUNNY   66  31  27 SE6       30.23F
MONROE         MOSUNNY   63  37  39 CALM      30.24F
MT. CLEMENS    PTSUNNY   58  37  44 S9        30.26F
PONTIAC        PTSUNNY   63  29  27 S12       30.24F
PORT HOPE        N/A     46  40  79 E14       30.22F
PORT HURON     SUNNY     63  36  36 S8        30.26F
TRI CITIES     SUNNY     63  31  30 S8        30.23F
TROY           MOSUNNY   63  30  28 S9        30.27F
SAGINAW HB     SUNNY     64  28  25 SW10      30.22F
YPSILANTI      MOSUNNY   68  31  25 SW9       30.26F
$$
MIZ043>046-050>051-056>058-064>065-071>073-077>080-201800-
SOUTHWEST LOWER MICHIGAN

CITY           SKY/WX    TMP DP  RH WIND       PRES   REMARKS
BATTLE CREEK   MOSUNNY   65  31  28 SW10      30.23F
BENTON HARBOR  MOSUNNY   65  35  33 SW9       30.21F
BIG RAPIDS     MOSUNNY   65  32  29 CALM      30.19F
COLDWATER      PTSUNNY   64  26  23 S9        30.24F
FREMONT        FAIR      64  31  29 SW8       30.20F
HOLLAND        MOSUNNY   67  36  31 S6        30.22F
GRAND RAPIDS   PTSUNNY   65  31  28 S9        30.22F
IONIA          FAIR      64  29  26 SW7       30.21F
KALAMAZOO      MOSUNNY   66  31  27 S8        30.23F
LUDINGTON      CLOUDY    59  32  36 S10G17    30.19F
MARSHALL       MOSUNNY   65  31  27 SW7       30.23F
MOUNT PLEASANT SUNNY     61  30  30 S7        30.22F
MUSKEGON       PTSUNNY   64  31  28 SW16G22   30.21F
SOUTH HAVEN    MOSUNNY   67  31  25 S10       30.21F
$$
MIZ016>042-201800-
NORTHERN LOWER MICHIGAN

CITY           SKY/WX    TMP DP  RH WIND       PRES   REMARKS
ALPENA         CLOUDY    56  28  34 S8        30.20F
BEAVER ISLAND  LGT RAIN  44  37  76 S12G18    30.15S
BELLAIRE       LGT RAIN  55  37  50 CALM      30.16F
CADILLAC       PTSUNNY   65  35  33 SW13      30.17F
CHARLEVOIX     LGT RAIN  53  36  53 S9        30.19F
FRANKFORT      CLOUDY    57  33  40 S6G16     30.16F
GAYLORD        CLOUDY    55  27  34 S9        30.18F
GRAYLING       CLOUDY    57  26  30 S8        30.20F
HARBOR SPRINGS DRIZZLE   51  41  68 CALM      30.16F
HOUGHTON LAKE  PTSUNNY   62  26  25 SW8       30.20F
MANISTEE       CLOUDY    63  34  34 S10G17    30.18F
OSCODA         PTSUNNY   62  26  26 SW15      30.21F
PELLSTON       LGT RAIN  48  42  80 E3        30.17F
ROGERS CITY    LGT RAIN  53  36  53 S10G16    30.18F
TRAVERSE CITY  CLOUDY    59  31  34 SW6       30.16F
$$
MIZ007>008-015-201800-
EASTERN UPPER MICHIGAN

CITY           SKY/WX    TMP DP  RH WIND       PRES   REMARKS
KINROSS        CLOUDY    37  37 100 SE8       30.15F WCI  31
MACKINAC ISLAN LGT SNOW  41  40  94 CALM      30.16F
NEWBERRY       CLOUDY    38  36  91 S14G20    30.12F WCI  30
S. S. MARIE    LGT RAIN  36  35  96 E6        30.16F FOG     WCI  31
MUNISING         N/A     47  39  74 S13G20    30.06F
$$
MIZ004>006-011>014-085-201800-
CENTRAL UPPER MICHIGAN

CITY           SKY/WX    TMP DP  RH WIND       PRES   REMARKS
MANISTIQUE     LGT RAIN  37  35  91 S8        30.13F WCI  31
ESCANABA       CLOUDY    37  36  93 S9        30.11F WCI  31
MENOMINEE      CLOUDY    39  37  93 S5        30.11F
SAWYER-GWINN   SUNNY     54  45  71 SW9       30.05F
$$
MIZ001>003-009>011-084-201800-
WESTERN UPPER MICHIGAN

CITY           SKY/WX    TMP DP  RH WIND       PRES   REMARKS
IRON MOUNTAIN  MOSUNNY   56  46  69 S12       30.05F
HOUGHTON       SUNNY     47  36  65 NW10      30.02S
COPPER HARBOR    N/A     41  35  79 N17       30.01S
IRONWOOD       SUNNY     61  43  51 W7        29.99S
$$

ABBREVIATIONS USED IN REMARKS
   TC - TEMPERATURE IN CELSIUS
  WCI - WIND CHILL INDEX
   HX - HEAT INDEX
  VSB - VISIBILITY




USA.gov is the U.S. government's official web portal to all federal, state and local government web resources and services.